sat.trackr.live / text

‹ back to catalog

STARLINK-34706

NORAD 64845 · 2025-152D

PAYLOAD ACTIVE UNKNOWN

§ Identity

Operator
Country
US
Launch date
2025-07-19
Launch site
AFWTR
Launch vehicle
Mass (kg)
RCS (m²)

Purposes: comms

External: N2YO · Heavens-Above · Gunter

§ Orbital elements

Epoch: 2026-09-20T14:00:38.505600Z

Period
93.91 min
Inclination
97.2820°
Eccentricity
0.0000573
Mean motion
15.33452612 rev/d
Perigee alt
465.1 km
Apogee alt
465.9 km
Semi-major
6,843.7 km
B*
2.8422e-4
RAAN
114.0916°
Arg perigee
66.9141°
Mean anomaly
293.2162°
Rev number
6,483

§ Raw data

STARLINK-347061 64845U 25152D   26263.58377900  .00009114  00000+0  28422-3 0  99952 64845  97.2820 114.0916 0000573  66.9141 293.2162 15.33452612 64839

JSON: /api/v1/satellites/64845 · /tle

For live sub-satellite position, see the globe view (requires WebGL).

§ Visibility from observer

Set your observer location to see the next 7 days of passes ≥ 10°. The values pass through the URL so the page stays shareable.

No JS? Fill the form by hand. The geolocation button needs JavaScript.